Terug naar catalogus

STARLINK-3106

ActiefCommunicatieVLEO
NORAD 49164·PAYLOAD·🇺🇸 United States

Gelanceerd Sep 14, 2021 vanaf Vandenberg Space Force Base

Loading…

Volgende Passages (komende 24 uur)

TLE

VersSource: CelesTrak SupGP

Epoch: Sep 15, 2026, 01:16 UTC

1 49164C 21082AL  26258.05326389  .00019232  00000+0  16124-2 0  2586
2 49164  70.0010 156.9988 0003140 274.2685 175.3737 14.98304228    17

Volg STARLINK-3106 in realtime met AllMySat

Download on the App Store